FW3182 Weather Reports


Display with metric or nautical units.
time (UTC)temp
F
wind
direction
speed
MPH
gust
MPH
rain 1hr
in
rain 24hr
in
rain mn
in
humidity
%
barometer
mb
20260509180204 81 274 1.0 3.0 0.00 0.00 0.00 42 1009.3
20260509175703 80 40 1.0 5.0 0.00 0.00 0.00 41 1009.3
20260509175203 80 276 1.0 5.0 0.00 0.00 0.00 42 1009.4
20260509174203 80 244 2.0 6.0 0.00 0.00 0.00 41 1009.5
20260509173203 81 227 3.0 6.0 0.00 0.00 0.00 41 1009.5
20260509172204 80 256 0.0 3.0 0.00 0.00 0.00 46 1009.6
20260509171704 80 63 1.0 3.0 0.00 0.00 0.00 39 1009.6
20260509171204 80 284 2.0 6.0 0.00 0.00 0.00 41 1009.7
20260509170703 80 242 0.0 2.0 0.00 0.00 0.00 42 1009.6
20260509170203 80 1 0.0 3.0 0.00 0.00 0.00 42 1009.7
20260509165704 80 289 1.0 3.0 0.00 0.00 0.00 46 1009.7
20260509164704 78 254 1.0 5.0 0.00 0.00 0.00 46 1009.7
20260509164204 78 316 1.0 7.0 0.00 0.00 0.00 47 1009.8
20260509163704 78 274 2.0 5.0 0.00 0.00 0.00 46 1009.8
20260509163204 79 286 2.0 5.0 0.00 0.00 0.00 44 1009.8
20260509162203 78 301 1.0 3.0 0.00 0.00 0.00 48 1009.8
20260509161703 78 191 3.0 6.0 0.00 0.00 0.00 46 1009.8
20260509161203 77 213 1.0 3.0 0.00 0.00 0.00 52 1009.7
20260509160703 76 273 0.0 3.0 0.00 0.00 0.00 54 1009.7
20260509160204 76 181 2.0 3.0 0.00 0.00 0.00 52 1009.7
20260509155703 76 273 1.0 3.0 0.00 0.00 0.00 51 1009.7
20260509155204 77 262 2.0 6.0 0.00 0.00 0.00 51 1009.7
20260509154703 77 37 0.0 1.0 0.00 0.00 0.00 58 1009.7
20260509153703 75 177 2.0 3.0 0.00 0.00 0.00 59 1009.6
20260509153203 75 196 1.0 3.0 0.00 0.00 0.00 62 1009.6
20260509152704 75 258 0.0 2.0 0.00 0.00 0.00 65 1009.7
20260509151704 73 232 0.0 1.0 0.00 0.00 0.00 64 1009.7
20260509151204 72 200 1.0 2.0 0.00 0.00 0.00 65 1009.7
20260509150704 72 203 2.0 5.0 0.00 0.00 0.00 64 1009.7
20260509150204 72 187 2.0 6.0 0.00 0.00 0.00 68 1009.7
20260509145704 71 80 0.0 2.0 0.00 0.00 0.00 71 1009.8
20260509145204 70 202 1.0 3.0 0.00 0.00 0.00 72 1009.8
20260509144704 70 202 2.0 3.0 0.00 0.00 0.00 72 1009.8
20260509144204 69 202 1.0 3.0 0.00 0.00 0.00 74 1009.8
20260509143704 69 198 2.0 3.0 0.00 0.00 0.00 74 1009.8
20260509143204 69 220 0.0 0.0 0.00 0.00 0.00 77 1009.8
20260509142204 69 201 2.0 3.0 0.00 0.00 0.00 77 1009.7
20260509141703 68 217 1.0 2.0 0.00 0.00 0.00 78 1009.6
20260509141203 67 116 1.0 3.0 0.00 0.00 0.00 80 1009.6
20260509140704 66 255 0.0 1.0 0.00 0.00 0.00 81 1009.6
20260509140204 65 151 1.0 3.0 0.00 0.00 0.00 81 1009.7
20260509135703 65 195 1.0 3.0 0.00 0.00 0.00 81 1009.6
20260509135203 64 186 1.0 3.0 0.00 0.00 0.00 83 1009.5
20260509134703 64 203 1.0 2.0 0.00 0.00 0.00 84 1009.5
20260509134203 63 297 1.0 3.0 0.00 0.00 0.00 84 1009.4
20260509133703 63 253 2.0 6.0 0.00 0.00 0.00 85 1009.5
20260509132703 62 205 2.0 3.0 0.00 0.00 0.00 85 1009.4
20260509132203 62 180 0.0 1.0 0.00 0.00 0.00 87 1009.3
20260509131204 61 271 2.0 3.0 0.00 0.00 0.00 88 1009.3
20260509130704 60 290 2.0 6.0 0.00 0.00 0.00 88 1009.2
20260509130203 60 280 2.0 3.0 0.00 0.00 0.00 89 1009.2
20260509125704 59 268 1.0 3.0 0.00 0.00 0.00 89 1009.1
20260509125203 59 277 1.0 3.0 0.00 0.00 0.00 90 1009.1
20260509124703 58 277 2.0 3.0 0.00 0.00 0.00 90 1009.1
20260509123703 57 280 1.0 3.0 0.00 0.00 0.00 91 1009.2
20260509123203 57 277 2.0 3.0 0.00 0.00 0.00 92 1009.1
20260509122704 56 263 1.0 3.0 0.00 0.00 0.00 92 1009.1
20260509122204 56 266 1.0 2.0 0.00 0.00 0.00 93 1009.0
20260509121704 56 257 0.0 1.0 0.00 0.00 0.00 93 1009.0
20260509121204 55 261 0.0 1.0 0.00 0.00 0.00 93 1009.0
20260509120703 55 274 0.0 0.0 0.00 0.00 0.00 93 1009.0
20260509120203 55 276 0.0 0.0 0.00 0.00 0.00 94 1009.0
20260509115204 55 268 1.0 2.0 0.00 0.00 0.00 94 1008.8
20260509114704 55 280 0.0 0.0 0.00 0.00 0.00 93 1008.8
20260509113704 55 269 0.0 2.0 0.00 0.00 0.00 93 1008.7
20260509113204 55 268 0.0 1.0 0.00 0.00 0.00 93 1008.7
20260509112704 55 265 0.0 1.0 0.00 0.00 0.00 93 1008.5
20260509111704 55 264 1.0 2.0 0.00 0.00 0.00 92 1008.5
20260509111204 55 266 1.0 3.0 0.00 0.00 0.00 92 1008.4
20260509110704 55 264 0.0 1.0 0.00 0.00 0.00 91 1008.3
20260509105703 56 273 2.0 3.0 0.00 0.00 0.00 91 1008.2
20260509105203 56 268 2.0 3.0 0.00 0.00 0.00 91 1008.2
20260509104703 56 276 1.0 3.0 0.00 0.00 0.00 91 1008.2
20260509104204 56 272 1.0 3.0 0.00 0.00 0.00 91 1008.2
20260509103204 56 269 1.0 1.0 0.00 0.00 0.00 90 1008.3
20260509102704 56 284 0.0 2.0 0.00 0.00 0.00 89 1008.3
20260509102204 57 283 1.0 5.0 0.00 0.00 0.00 89 1008.3
20260509101704 57 269 1.0 3.0 0.00 0.00 0.00 88 1008.3
20260509101203 57 252 1.0 3.0 0.00 0.00 0.00 88 1008.4
20260509100205 57 279 2.0 6.0 0.00 0.00 0.00 88 1008.4
20260509095203 57 275 2.0 3.0 0.00 0.00 0.00 88 1008.5
20260509094704 58 263 1.0 5.0 0.00 0.00 0.00 87 1008.4
20260509094204 58 260 2.0 5.0 0.00 0.00 0.00 87 1008.4
20260509093704 58 260 2.0 5.0 0.00 0.00 0.00 87 1008.5
20260509093203 58 266 2.0 6.0 0.00 0.00 0.00 87 1008.5
20260509092704 58 271 2.0 3.0 0.00 0.00 0.00 87 1008.5
20260509092204 58 274 2.0 6.0 0.00 0.00 0.00 87 1008.5
20260509091704 57 274 2.0 3.0 0.00 0.00 0.00 88 1008.4
20260509091204 57 279 1.0 3.0 0.00 0.00 0.00 88 1008.6
20260509090704 57 266 1.0 2.0 0.00 0.00 0.00 88 1008.5
20260509090204 58 273 0.0 1.0 0.00 0.00 0.00 88 1008.6
20260509085703 58 274 0.0 1.0 0.00 0.00 0.00 88 1008.6
20260509085203 58 281 1.0 3.0 0.00 0.00 0.00 88 1008.8
20260509084704 57 273 2.0 7.0 0.00 0.00 0.00 89 1008.8
20260509083704 57 267 0.0 1.0 0.00 0.00 0.00 89 1008.9
20260509083204 57 247 0.0 0.0 0.00 0.00 0.00 89 1008.9
20260509082704 57 210 0.0 0.0 0.00 0.00 0.00 89 1008.9
20260509082204 57 210 0.0 0.0 0.00 0.00 0.00 89 1008.8
20260509081704 57 209 0.0 0.0 0.00 0.00 0.00 88 1008.8
20260509081204 58 243 0.0 0.0 0.00 0.00 0.00 88 1008.7
20260509080704 58 243 1.0 2.0 0.00 0.00 0.00 87 1008.7
20260509080204 58 202 1.0 3.0 0.00 0.00 0.00 87 1008.7
20260509075704 58 211 0.0 2.0 0.00 0.00 0.00 87 1008.7
20260509075204 59 217 1.0 2.0 0.00 0.00 0.00 86 1008.6
20260509074703 59 222 1.0 2.0 0.00 0.00 0.00 86 1008.4
20260509073704 59 257 1.0 3.0 0.00 0.00 0.00 85 1008.4
20260509073204 59 270 1.0 3.0 0.00 0.00 0.00 85 1008.4
20260509072704 59 271 1.0 3.0 0.00 0.00 0.00 85 1008.3
20260509071703 59 268 1.0 3.0 0.00 0.00 0.00 85 1008.4
20260509071204 59 273 2.0 3.0 0.00 0.00 0.00 86 1008.4
20260509070704 59 273 1.0 3.0 0.00 0.00 0.00 85 1008.5
20260509070203 59 276 0.0 2.0 0.00 0.00 0.00 85 1008.4
20260509065204 60 269 1.0 5.0 0.00 0.00 0.00 85 1008.5
20260509064704 60 282 2.0 3.0 0.00 0.00 0.00 85 1008.5
20260509063704 59 276 0.0 2.0 0.00 0.00 0.00 87 1008.6
20260509063204 59 273 1.0 3.0 0.00 0.00 0.00 88 1008.6
20260509062704 58 278 0.0 0.0 0.00 0.00 0.00 88 1008.7
20260509062204 58 207 0.0 0.0 0.00 0.00 0.00 87 1008.7
20260509061704 58 206 0.0 0.0 0.00 0.00 0.00 87 1008.7
20260509061204 58 206 0.0 0.0 0.00 0.00 0.00 87 1008.7
20260509060703 59 206 0.0 0.0 0.00 0.00 0.00 86 1008.7
20260509060203 59 206 0.0 0.0 0.00 0.00 0.00 87 1008.7
20260509055204 59 240 0.0 0.0 0.00 0.00 0.00 86 1008.8
20260509054703 59 240 0.0 1.0 0.00 0.00 0.00 86 1008.8
20260509054204 59 203 1.0 2.0 0.00 0.00 0.00 86 1008.9
20260509053704 59 203 0.0 2.0 0.00 0.00 0.00 86 1008.9
20260509052704 59 198 1.0 2.0 0.00 0.00 0.00 85 1008.9
20260509052203 60 191 0.0 1.0 0.00 0.00 0.00 84 1008.8
20260509051203 60 236 0.0 0.0 0.00 0.00 0.00 83 1009.0
20260509045704 61 206 0.0 1.0 0.00 0.00 0.00 81 1009.0
20260509045204 61 208 0.0 0.0 0.00 0.00 0.00 81 1009.1
20260509044704 62 280 0.0 0.0 0.00 0.00 0.00 80 1009.1
20260509044204 62 280 0.0 0.0 0.00 0.00 0.00 78 1009.0
20260509043704 63 279 0.0 0.0 0.00 0.00 0.00 78 1009.2
20260509043204 63 280 0.0 0.0 0.00 0.00 0.00 77 1009.1
20260509041704 64 359 0.0 2.0 0.00 0.00 0.00 74 1009.0
20260509040204 65 281 1.0 5.0 0.00 0.00 0.00 72 1008.9
20260509035204 66 301 1.0 3.0 0.00 0.00 0.00 69 1008.9
20260509034204 67 274 1.0 6.0 0.00 0.00 0.00 66 1008.7
20260509033704 67 293 2.0 5.0 0.00 0.00 0.00 66 1008.6
20260509033204 67 315 2.0 3.0 0.00 0.00 0.00 65 1008.5
20260509032704 67 261 3.0 8.0 0.00 0.00 0.00 64 1008.6
20260509032204 67 280 3.0 12.0 0.00 0.00 0.00 63 1008.2
20260509031204 68 263 2.0 5.0 0.00 0.00 0.00 62 1007.6
20260509030704 68 253 2.0 6.0 0.00 0.00 0.00 62 1007.5
20260509030203 68 259 2.0 5.0 0.00 0.00 0.00 63 1007.4
20260509025703 68 258 3.0 5.0 0.00 0.00 0.00 62 1007.3
20260509025204 68 245 3.0 9.0 0.00 0.00 0.00 63 1007.2
20260509024203 68 234 4.0 12.0 0.00 0.00 0.00 63 1007.1
20260509023704 68 211 3.0 8.0 0.00 0.00 0.00 64 1006.9
20260509023204 68 237 3.0 12.0 0.00 0.00 0.00 64 1006.8
20260509022704 68 239 3.0 6.0 0.00 0.00 0.00 65 1006.8
20260509022204 68 193 3.0 7.0 0.00 0.00 0.00 65 1006.7
20260509021703 68 221 4.0 12.0 0.00 0.00 0.00 66 1006.8
20260509021203 68 209 3.0 7.0 0.00 0.00 0.00 66 1006.8
20260509020203 68 208 3.0 6.0 0.00 0.00 0.00 65 1006.4
20260509015704 68 216 4.0 8.0 0.00 0.00 0.00 65 1006.3
20260509015204 68 203 3.0 9.0 0.00 0.00 0.00 65 1006.3
20260509014704 68 199 5.0 10.0 0.00 0.00 0.00 66 1006.5
20260509014204 67 197 4.0 12.0 0.00 0.00 0.00 66 1006.2
20260509013203 67 203 2.0 5.0 0.00 0.00 0.00 65 1005.8
20260509012704 68 252 2.0 6.0 0.00 0.00 0.00 64 1005.5
20260509012204 68 151 3.0 5.0 0.00 0.00 0.00 63 1005.8
20260509011704 68 137 3.0 6.0 0.00 0.00 0.00 63 1006.3
20260509011204 67 158 1.0 3.0 0.00 0.00 0.00 63 1006.6
20260509010703 67 198 0.0 0.0 0.00 0.00 0.00 64 1006.9
20260509010203 68 202 0.0 0.0 0.00 0.00 0.00 65 1006.9
20260509005703 68 202 0.0 0.0 0.00 0.00 0.00 66 1006.8
20260509005203 68 202 0.0 0.0 0.00 0.00 0.00 64 1006.7
20260509004204 69 203 0.0 0.0 0.00 0.00 0.00 62 1006.5
20260509003704 69 203 0.0 0.0 0.00 0.00 0.00 61 1006.3
20260509003204 69 257 0.0 0.0 0.00 0.00 0.00 59 1006.3
20260509002704 70 257 0.0 1.0 0.00 0.00 0.00 58 1006.3
20260509002204 70 257 0.0 2.0 0.00 0.00 0.00 60 1006.3
20260509001703 71 243 1.0 2.0 0.00 0.00 0.00 55 1005.9
20260509000704 71 96 0.0 0.0 0.00 0.00 0.00 56 1005.8
20260509000204 71 120 0.0 0.0 0.00 0.00 0.00 54 1006.2
20260508235703 72 93 0.0 1.0 0.00 0.00 0.00 56 1006.3
20260508235203 72 106 0.0 1.0 0.00 0.00 0.00 53 1006.6
20260508234703 72 240 1.0 3.0 0.00 0.00 0.00 50 1007.1
20260508234203 72 268 2.0 3.0 0.00 0.00 0.00 51 1007.3
20260508233704 73 257 1.0 3.0 0.00 0.00 0.00 52 1007.4
20260508233204 73 264 1.0 3.0 0.00 0.00 0.00 52 1007.4
20260508232203 73 262 1.0 8.0 0.00 0.00 0.00 51 1007.5
20260508231703 74 246 0.0 1.0 0.00 0.00 0.00 53 1007.3
20260508231203 74 239 0.0 1.0 0.00 0.00 0.00 51 1007.1
20260508230704 74 195 0.0 1.0 0.00 0.00 0.00 50 1007.1
20260508230204 75 165 1.0 3.0 0.00 0.00 0.00 48 1007.0
20260508225704 75 187 2.0 5.0 0.00 0.00 0.00 47 1007.0
20260508225204 75 181 1.0 3.0 0.00 0.00 0.00 47 1006.9
20260508224704 76 183 1.0 3.0 0.00 0.00 0.00 47 1006.9
20260508224203 76 235 1.0 5.0 0.00 0.00 0.00 46 1007.0
20260508223703 76 228 1.0 5.0 0.00 0.00 0.00 47 1006.9
20260508223203 77 220 2.0 5.0 0.00 0.00 0.00 44 1006.8
20260508222703 78 241 1.0 9.0 0.00 0.00 0.00 44 1006.8
20260508222203 78 215 3.0 6.0 0.00 0.00 0.00 43 1006.7
20260508221703 78 184 3.0 7.0 0.00 0.00 0.00 44 1006.6
20260508215704 79 208 5.0 14.0 0.00 0.00 0.00 42 1006.6
20260508215204 79 184 3.0 12.0 0.00 0.00 0.00 42 1006.6
20260508214704 79 205 3.0 12.0 0.00 0.00 0.00 43 1006.6
20260508214204 79 196 3.0 9.0 0.00 0.00 0.00 44 1006.6
20260508213704 79 238 5.0 12.0 0.00 0.00 0.00 43 1006.7
20260508213204 79 193 5.0 13.0 0.00 0.00 0.00 42 1006.8
20260508212704 79 204 3.0 10.0 0.00 0.00 0.00 44 1006.7
20260508212204 79 101 2.0 12.0 0.00 0.00 0.00 46 1006.8
20260508211703 79 197 2.0 12.0 0.00 0.00 0.00 46 1007.0
20260508210703 78 249 2.0 8.0 0.00 0.00 0.00 45 1007.1
20260508210203 78 213 3.0 8.0 0.00 0.00 0.00 46 1007.1
20260508205704 78 222 3.0 9.0 0.00 0.00 0.00 47 1007.3
20260508205204 78 229 5.0 9.0 0.00 0.00 0.00 46 1007.5
20260508204704 78 233 2.0 5.0 0.00 0.00 0.00 46 1007.6
20260508204204 78 184 3.0 9.0 0.00 0.00 0.00 47 1007.7
20260508203704 78 253 3.0 7.0 0.00 0.00 0.00 46 1007.8
20260508202703 78 165 5.0 12.0 0.00 0.00 0.00 47 1008.0
20260508202203 78 202 5.0 12.0 0.00 0.00 0.00 46 1008.0
20260508201703 77 175 1.0 6.0 0.00 0.00 0.00 49 1008.1
20260508201203 78 199 4.0 10.0 0.00 0.00 0.00 47 1008.1
20260508200703 77 221 0.0 6.0 0.00 0.00 0.00 48 1008.3
20260508200203 77 181 2.0 6.0 0.00 0.00 0.00 48 1008.4
20260508195703 76 123 1.0 6.0 0.00 0.00 0.00 50 1008.5
20260508195203 76 160 2.0 9.0 0.00 0.00 0.00 49 1008.6
20260508194704 76 188 3.0 8.0 0.00 0.00 0.00 49 1008.7
20260508194204 75 235 2.0 8.0 0.00 0.00 0.00 49 1008.7
20260508193704 75 237 5.0 10.0 0.00 0.00 0.00 49 1008.8
20260508192704 76 168 1.0 6.0 0.00 0.00 0.00 51 1008.9
20260508191203 75 257 2.0 6.0 0.00 0.00 0.00 51 1009.1
20260508190703 75 198 2.0 8.0 0.00 0.00 0.00 52 1009.2
20260508185203 76 195 3.0 10.0 0.00 0.00 0.00 48 1009.4
20260508184703 76 219 3.0 9.0 0.00 0.00 0.00 49 1009.5
20260508184203 76 212 3.0 9.0 0.00 0.00 0.00 50 1009.6
20260508183704 75 220 2.0 8.0 0.00 0.00 0.00 51 1009.7
20260508183204 75 233 6.0 13.0 0.00 0.00 0.00 49 1009.9
20260508182704 75 182 5.0 12.0 0.00 0.00 0.00 50 1010.0
20260508182204 76 200 2.0 10.0 0.00 0.00 0.00 50 1010.0
20260508181704 75 238 2.0 10.0 0.00 0.00 0.00 52 1010.0
20260508181204 75 247 3.0 7.0 0.00 0.00 0.00 51 1010.0
20260508180703 75 174 0.0 12.0 0.00 0.00 0.00 56 1010.1